DW6455 Orivesi FI current weather conditions

sailwx.info

Wind from 144 at 6 knots gusting 14

Air temperature -0.0° C
Dewpoint -0.7° C

Last reported at 2015-Jan-29 19:47 UTC.
Time now 2015-Jan-29 20:27 UTC

Location: N 61°39' E 024°21'.
View on Google Maps.

See reports from other nearby stations

  
Tides and Currents Weather Stations Pressure Air Temp Water Temp Dewpoint Dewpoint Depression Visibility Wind Speed Wind Dir Waves Ship Positions
date/time (UTC)wind fromknots sea level pressurealtimeterstation pressurevisibilityair tempwater tempwave heightnotes
2015-Jan-29 19:47 144 6 gusting 14 -0.0
2015-Jan-29 19:42 144 6 gusting 14 -0.0
2015-Jan-29 19:37 180 6 gusting 14 -0.0
2015-Jan-29 19:32 155 7 gusting 13 -0.0
2015-Jan-29 19:27 145 6 gusting 13 -0.0
2015-Jan-29 19:22 183 6 gusting 13 -0.0
2015-Jan-29 19:17 146 6 gusting 12 -0.0
2015-Jan-29 19:12 148 5 gusting 12 -0.0
2015-Jan-29 19:07 145 4 gusting 13 -0.0
2015-Jan-29 19:02 170 5 gusting 15 -0.0
2015-Jan-29 18:57 161 6 gusting 15 -0.0
2015-Jan-29 18:52 165 6 gusting 15 -0.0
2015-Jan-29 18:47 163 6 gusting 15 -0.0
2015-Jan-29 18:42 180 6 gusting 13 -0.0
2015-Jan-29 18:37 173 7 gusting 13 -0.0
2015-Jan-29 18:32 142 6 gusting 13 -0.0
2015-Jan-29 18:27 159 6 gusting 13 -0.0
2015-Jan-29 18:22 138 6 gusting 13 -0.0
2015-Jan-29 18:17 162 7 gusting 14 -0.0
2015-Jan-29 18:12 169 7 gusting 14 -0.0
2015-Jan-29 18:07 198 6 gusting 14 -0.0
2015-Jan-29 18:02 161 6 gusting 14 -0.0
2015-Jan-29 17:57 169 7 gusting 14 -0.0
2015-Jan-29 17:52 169 7 gusting 15 -0.0
2015-Jan-29 17:47 169 6 gusting 15 -0.0
2015-Jan-29 17:42 198 6 gusting 17 -0.0
2015-Jan-29 17:37 159 6 gusting 17 -0.0
2015-Jan-29 17:32 146 6 gusting 14 -0.0
2015-Jan-29 17:27 159 7 gusting 14 -0.0
2015-Jan-29 17:22 153 7 gusting 18 -0.0
2015-Jan-29 17:17 166 7 gusting 18 -0.0
2015-Jan-29 17:12 154 6 gusting 18 -0.0
2015-Jan-29 17:07 159 6 gusting 14 -0.0
2015-Jan-29 17:02 150 6 gusting 13 -0.0
2015-Jan-29 16:57 159 6 gusting 13 -0.0
2015-Jan-29 16:52 135 6 gusting 13 -0.0
2015-Jan-29 16:47 159 5 gusting 13 -0.0
2015-Jan-29 16:42 200 5 gusting 13 -0.0
2015-Jan-29 16:37 165 5 gusting 13 -0.0
2015-Jan-29 16:32 192 4 gusting 15 -0.0
2015-Jan-29 16:27 186 5 gusting 15 -0.0
2015-Jan-29 16:22 171 6 gusting 15 -0.0
2015-Jan-29 16:17 176 6 gusting 13 -0.0
2015-Jan-29 16:12 134 6 gusting 13 -0.0
2015-Jan-29 16:07 163 6 gusting 13 -0.0
2015-Jan-29 16:02 196 6 gusting 19 -0.0
2015-Jan-29 15:57 142 6 gusting 19 -0.0
2015-Jan-29 15:52 153 6 gusting 19 -0.0
2015-Jan-29 15:47 136 6 gusting 19 -0.0
2015-Jan-29 15:42 158 6 gusting 17 -0.0
2015-Jan-29 15:37 159 7 gusting 17 -0.0
2015-Jan-29 15:32 146 8 gusting 16 -0.0
2015-Jan-29 15:27 161 8 gusting 16 -0.6
2015-Jan-29 15:22 180 8 gusting 15 -0.6
2015-Jan-29 15:17 158 8 gusting 15 -0.6
2015-Jan-29 15:12 128 7 gusting 15 -0.6
2015-Jan-29 15:07 162 7 gusting 15 -0.6
2015-Jan-29 15:02 167 8 gusting 14 -0.6
2015-Jan-29 14:57 164 8 gusting 14 -0.6
2015-Jan-29 14:52 138 9 gusting 14 -0.6
2015-Jan-29 14:47 161 8 gusting 15 -0.6
2015-Jan-29 14:42 140 7 gusting 15 -0.6
2015-Jan-29 14:37 161 8 gusting 16 -0.6
2015-Jan-29 14:32 188 9 gusting 18 -0.6
2015-Jan-29 14:27 160 9 gusting 18 -0.6
2015-Jan-29 14:22 149 9 gusting 18 -0.6
2015-Jan-29 14:17 163 9 gusting 18 -0.6
2015-Jan-29 14:12 171 7 gusting 18 -0.6
2015-Jan-29 14:07 145 8 gusting 18 -0.6
2015-Jan-29 14:02 126 8 gusting 15 -0.6
2015-Jan-29 13:57 157 8 gusting 15 -0.6
2015-Jan-29 13:52 165 8 gusting 15 -0.6
2015-Jan-29 13:47 140 8 gusting 15 -0.6
2015-Jan-29 13:42 151 9 gusting 14 -0.6
2015-Jan-29 13:37 161 7 gusting 14 -0.6
2015-Jan-29 13:32 137 7 gusting 15 -0.6
2015-Jan-29 13:27 120 7 gusting 15 -0.6
2015-Jan-29 13:22 163 7 gusting 15 -0.6
2015-Jan-29 13:17 189 7 gusting 14 -0.6
2015-Jan-29 13:12 173 8 gusting 14 -0.6
2015-Jan-29 13:07 148 7 gusting 15 -0.6
2015-Jan-29 13:02 167 8 gusting 17 -0.6
2015-Jan-29 12:57 150 9 gusting 17 -0.6
2015-Jan-29 12:52 170 9 gusting 17 -0.6
2015-Jan-29 12:47 148 9 gusting 17 -0.6
2015-Jan-29 12:42 149 8 gusting 14 -0.6
2015-Jan-29 12:37 155 8 gusting 14 -0.6
2015-Jan-29 12:32 157 8 gusting 14 -0.6
2015-Jan-29 12:27 156 8 gusting 14 -0.6
2015-Jan-29 12:22 148 7 gusting 17 -0.6
2015-Jan-29 12:17 150 7 gusting 18 -0.6
2015-Jan-29 12:12 161 7 gusting 18 -0.0
2015-Jan-29 12:07 136 7 gusting 18 -0.0
2015-Jan-29 12:02 142 8 gusting 13 -0.0
2015-Jan-29 11:57 146 7 gusting 13 -0.0
2015-Jan-29 11:52 159 6 gusting 13 -0.0
2015-Jan-29 11:47 146 6 gusting 14 -0.0
2015-Jan-29 11:42 148 6 gusting 14 -0.0
2015-Jan-29 11:37 134 6 gusting 16 -0.0
2015-Jan-29 11:32 140 6 gusting 16 -0.0
2015-Jan-29 11:27 161 7 gusting 16 -0.0
2015-Jan-29 11:22 152 7 gusting 16 -0.0
2015-Jan-29 11:17 123 7 gusting 15 -0.0
2015-Jan-29 11:12 146 8 gusting 17 -0.0
2015-Jan-29 11:07 180 9 gusting 19 -0.0
2015-Jan-29 11:02 145 9 gusting 19 -0.0
2015-Jan-29 10:57 145 8 gusting 19 -0.0
2015-Jan-29 10:52 159 7 gusting 19 -0.0
2015-Jan-29 10:47 142 7 gusting 19 -0.0
2015-Jan-29 10:42 145 7 gusting 18 -0.0
2015-Jan-29 10:37 186 8 gusting 19 -0.0
2015-Jan-29 10:32 144 9 gusting 19 -0.0
2015-Jan-29 10:27 171 8 gusting 18 -0.0
2015-Jan-29 10:22 138 8 gusting 18 -0.0
2015-Jan-29 10:17 147 7 gusting 19 -0.0
2015-Jan-29 10:12 165 7 gusting 19 -0.0
2015-Jan-29 10:07 150 8 gusting 19 -0.6
2015-Jan-29 10:02 143 8 gusting 15 -0.6
2015-Jan-29 09:57 135 7 gusting 15 -0.6
2015-Jan-29 09:52 167 6 gusting 14 -0.6
2015-Jan-29 09:47 142 6 gusting 17 -0.6
2015-Jan-29 09:42 162 7 gusting 17 -0.6
2015-Jan-29 09:37 148 7 gusting 17 -0.0
2015-Jan-29 09:32 125 7 gusting 19 -0.0
2015-Jan-29 09:27 155 7 gusting 19 -0.0
2015-Jan-29 09:22 150 7 gusting 19 -0.0
2015-Jan-29 09:17 165 7 gusting 19 -0.0
2015-Jan-29 09:12 127 7 gusting 21 -0.0
2015-Jan-29 09:07 170 7 gusting 21 -0.0
2015-Jan-29 09:02 160 9 gusting 21 -0.0
2015-Jan-29 08:57 145 10 gusting 21 -0.0
2015-Jan-29 08:52 189 9 gusting 15 -0.0
2015-Jan-29 08:47 139 8 gusting 15 -0.0
2015-Jan-29 08:42 195 8 gusting 19 -0.0
2015-Jan-29 08:37 169 8 gusting 19 -0.0
2015-Jan-29 08:32 149 8 gusting 20 -0.0
2015-Jan-29 08:27 167 11 gusting 20 -0.0
2015-Jan-29 08:22 141 11 gusting 16 -0.0
2015-Jan-29 08:17 152 9 gusting 16 -0.0
2015-Jan-29 08:12 183 8 gusting 22 -0.0
2015-Jan-29 08:07 154 7 gusting 22 -0.0
2015-Jan-29 08:02 161 7 gusting 19 -0.0
2015-Jan-29 07:57 143 8 gusting 19 -0.0
2015-Jan-29 07:52 173 8 gusting 17 -0.0
2015-Jan-29 07:47 163 8 gusting 17 -0.0
2015-Jan-29 07:42 134 7 gusting 16 -0.0
2015-Jan-29 07:37 171 7 gusting 16 -0.0
2015-Jan-29 07:32 175 8 gusting 17 -0.0
2015-Jan-29 07:27 140 8 gusting 17 -0.0
2015-Jan-29 07:22 147 7 gusting 19 -0.0
2015-Jan-29 07:17 142 6 gusting 19 -0.0
2015-Jan-29 07:12 171 6 gusting 18 -0.0
2015-Jan-29 07:07 169 6 gusting 18 -0.0
2015-Jan-29 07:02 053 6 gusting 18 0.6
2015-Jan-29 06:57 147 6 gusting 18 0.6
2015-Jan-29 06:52 134 6 gusting 14 0.6
2015-Jan-29 06:47 153 5 gusting 14 0.6
2015-Jan-29 05:47 155 6 gusting 14 0.6
2015-Jan-29 05:42 146 6 gusting 14 0.6
2015-Jan-29 05:37 207 6 gusting 14 0.6
2015-Jan-29 05:32 178 6 gusting 14 0.6
2015-Jan-29 05:27 147 6 gusting 14 0.6
2015-Jan-29 05:22 150 6 gusting 15 0.6
2015-Jan-29 05:17 154 6 gusting 15 0.6
2015-Jan-29 05:12 161 6 gusting 14 0.6
2015-Jan-29 05:07 162 5 gusting 14 0.6
2015-Jan-29 05:02 225 5 gusting 13 0.6
2015-Jan-29 04:57 205 6 gusting 13 0.6
2015-Jan-29 04:52 143 5 gusting 13 0.6
2015-Jan-29 04:47 209 5 gusting 13 0.6
2015-Jan-29 04:42 157 5 gusting 13 0.6
2015-Jan-29 04:37 173 6 gusting 13 0.6
2015-Jan-29 04:32 192 5 gusting 13 1.1
2015-Jan-29 04:27 180 4 gusting 13 1.1
2015-Jan-29 04:22 205 4 gusting 17 1.1
2015-Jan-29 04:17 196 5 gusting 17 1.1
2015-Jan-29 04:12 177 6 gusting 17 1.1
2015-Jan-29 04:07 202 6 gusting 17 1.1
2015-Jan-29 04:02 178 7 gusting 17 1.1
2015-Jan-29 03:57 198 7 gusting 17 1.1
2015-Jan-29 03:52 165 6 gusting 14 1.1
2015-Jan-29 03:47 169 5 gusting 14 1.1
2015-Jan-29 03:42 193 5 gusting 13 1.1
2015-Jan-29 03:37 190 5 gusting 13 1.1
2015-Jan-29 03:32 149 5 gusting 13 1.1
2015-Jan-29 03:27 208 6 gusting 13 1.1
2015-Jan-29 03:22 196 5 gusting 19 1.1
2015-Jan-29 03:17 169 5 gusting 19 1.1
2015-Jan-29 03:12 143 6 gusting 15 1.1
2015-Jan-29 03:07 190 6 gusting 15 1.1
2015-Jan-29 03:02 195 6 gusting 15 1.1
2015-Jan-29 02:57 153 6 gusting 15 1.1
2015-Jan-29 02:52 200 6 gusting 15 1.1
2015-Jan-29 02:47 200 5 gusting 15 1.1
2015-Jan-29 02:42 196 5 gusting 15 1.1
2015-Jan-29 02:37 142 6 gusting 15 1.1
2015-Jan-29 02:32 166 6 gusting 15 1.1
2015-Jan-29 02:27 159 5 gusting 15 1.1
2015-Jan-29 02:22 187 4 gusting 15 1.1
2015-Jan-29 02:17 191 6 gusting 14 1.1
2015-Jan-29 02:12 188 6 gusting 14 1.1
2015-Jan-29 02:07 201 6 gusting 14 1.1
2015-Jan-29 02:02 189 5 gusting 15 1.1
2015-Jan-29 01:57 161 5 gusting 15 1.1
2015-Jan-29 01:52 092 6 gusting 19 1.1
2015-Jan-29 01:47 200 6 gusting 19 1.1
2015-Jan-29 01:42 207 5 gusting 19 1.1
2015-Jan-29 01:37 215 5 gusting 14 1.1
2015-Jan-29 01:32 192 6 gusting 16 1.1
2015-Jan-29 01:27 205 6 gusting 16 1.1
2015-Jan-29 01:22 189 6 gusting 16 1.1
2015-Jan-29 01:17 136 6 gusting 14 1.1
2015-Jan-29 01:12 200 6 gusting 14 1.1
2015-Jan-29 01:07 195 6 gusting 14 1.1
2015-Jan-29 01:02 184 5 gusting 14 1.1
2015-Jan-29 00:57 207 5 gusting 14 1.1
2015-Jan-29 00:52 202 5 gusting 14 1.1
2015-Jan-29 00:47 205 6 gusting 13 1.1
2015-Jan-29 00:42 234 6 gusting 13 1.1
2015-Jan-29 00:37 186 5 gusting 12 1.1
2015-Jan-29 00:32 196 6 gusting 14 1.1
2015-Jan-29 00:27 220 6 gusting 14 1.1
2015-Jan-29 00:22 191 4 gusting 14 1.1
2015-Jan-29 00:17 196 5 gusting 13 1.1
2015-Jan-29 00:12 183 6 gusting 13 1.1
2015-Jan-29 00:07 167 6 gusting 13 1.1
2015-Jan-29 00:02 134 6 gusting 12 1.1
2015-Jan-28 23:57 193 6 gusting 12 1.1
2015-Jan-28 23:52 192 6 gusting 14 1.1
2015-Jan-28 23:47 192 6 gusting 14 1.1
2015-Jan-28 23:42 184 6 gusting 14 1.1
2015-Jan-28 23:37 183 6 gusting 13 1.1
2015-Jan-28 23:32 187 6 gusting 11 1.1
2015-Jan-28 23:27 186 6 gusting 11 1.1
2015-Jan-28 23:22 169 5 gusting 10 1.1
2015-Jan-28 23:17 180 3 gusting 13 1.1
2015-Jan-28 23:12 166 4 gusting 13 1.1
2015-Jan-28 23:07 186 5 gusting 13 1.7
2015-Jan-28 23:02 213 4 gusting 13 1.7
2015-Jan-28 22:57 186 5 gusting 13 1.7
2015-Jan-28 22:52 192 5 gusting 12 1.1
2015-Jan-28 22:47 229 4 gusting 12 1.1
2015-Jan-28 22:42 240 4 gusting 12 1.1
2015-Jan-28 22:37 211 4 gusting 11 1.1
2015-Jan-28 22:32 184 5 gusting 14 1.1
2015-Jan-28 22:27 199 5 gusting 14 1.1
2015-Jan-28 22:22 220 4 gusting 14 1.1
2015-Jan-28 22:17 210 4 gusting 11 1.1
2015-Jan-28 22:12 161 4 gusting 11 1.1
2015-Jan-28 22:07 161 4 gusting 11 1.1
2015-Jan-28 22:02 176 4 gusting 9 1.1
2015-Jan-28 21:57 185 4 gusting 9 1.1
2015-Jan-28 21:52 223 4 gusting 10 1.7
2015-Jan-28 21:47 227 5 gusting 13 1.7
2015-Jan-28 21:42 226 5 gusting 13 1.7
2015-Jan-28 21:37 205 5 gusting 13 1.7
2015-Jan-28 21:32 211 6 gusting 12 1.7
2015-Jan-28 21:27 231 5 gusting 12 1.1
2015-Jan-28 21:22 192 4 gusting 13 1.1
2015-Jan-28 21:17 198 5 gusting 13 1.1
2015-Jan-28 21:12 209 6 gusting 13 1.1
2015-Jan-28 21:07 206 6 gusting 13 1.1
2015-Jan-28 21:02 207 5 gusting 13 1.7
2015-Jan-28 20:57 220 5 gusting 13 1.1
2015-Jan-28 20:52 198 5 gusting 14 1.1
2015-Jan-28 20:47 184 6 gusting 14 1.7
2015-Jan-28 20:42 207 6 gusting 14 1.7
2015-Jan-28 20:37 190 6 gusting 13 1.7
2015-Jan-28 20:32 211 6 gusting 13 1.1
2015-Jan-28 20:27 204 5 gusting 13 1.1
2015-Jan-28 20:22 205 6 gusting 12 1.1
2015-Jan-28 20:17 145 6 gusting 12 1.1
2015-Jan-28 20:12 224 5 gusting 13 1.1
2015-Jan-28 20:07 236 6 gusting 15 1.1
2015-Jan-28 20:02 189 6 gusting 16 1.1
2015-Jan-28 19:57 223 6 gusting 16 1.1
2015-Jan-28 19:52 239 6 gusting 17 1.1
2015-Jan-28 19:47 233 6 gusting 17 1.1
2015-Jan-28 19:42 180 6 gusting 17 1.1
2015-Jan-28 19:37 199 6 gusting 15 1.1
2015-Jan-28 19:32 156 6 gusting 15 1.1
2015-Jan-28 19:27 252 6 gusting 15 1.1
2015-Jan-28 19:22 217 6 gusting 15 1.1
2015-Jan-28 19:17 215 6 gusting 15 1.1
2015-Jan-28 19:12 202 6 gusting 15 1.1
2015-Jan-28 19:07 203 6 gusting 13 1.1
2015-Jan-28 19:02 225 6 gusting 15 1.1
2015-Jan-28 18:57 187 6 gusting 15 1.1
2015-Jan-28 18:52 182 7 gusting 15 1.1
2015-Jan-28 18:47 223 7 gusting 15 1.1
2015-Jan-28 18:42 219 6 gusting 15 1.1
2015-Jan-28 18:37 182 6 gusting 15 1.1
2015-Jan-28 18:32 187 6 gusting 12 1.1
2015-Jan-28 18:27 244 5 gusting 12 1.1
2015-Jan-28 18:22 234 6 gusting 12 1.1
2015-Jan-28 18:17 082 6 gusting 11 1.1
2015-Jan-28 18:12 247 6 gusting 11 1.1
2015-Jan-28 18:07 201 5 gusting 11 1.1
2015-Jan-28 18:02 204 4 gusting 13 1.1
2015-Jan-28 17:57 169 5 gusting 13 1.1
2015-Jan-28 17:52 209 6 gusting 14 1.1
2015-Jan-28 17:47 184 6 gusting 14 1.1
2015-Jan-28 17:42 192 6 gusting 14 1.1
2015-Jan-28 17:37 237 6 gusting 13 1.1
2015-Jan-28 17:32 197 6 gusting 13 1.1
2015-Jan-28 17:27 196 6 gusting 13 1.1
2015-Jan-28 17:22 220 6 gusting 13 1.1
2015-Jan-28 17:17 196 6 gusting 13 1.1
2015-Jan-28 17:12 221 6 gusting 13 1.1
2015-Jan-28 17:07 201 6 gusting 13 1.1
2015-Jan-28 17:02 219 6 gusting 13 0.6
2015-Jan-28 16:57 213 6 gusting 13 0.6
2015-Jan-28 16:52 205 6 gusting 14 0.6
2015-Jan-28 16:47 220 5 gusting 14 0.6
2015-Jan-28 16:42 200 5 gusting 14 0.6
2015-Jan-28 16:37 186 5 gusting 13 0.6
2015-Jan-28 16:32 223 6 gusting 13 0.6
2015-Jan-28 16:27 206 6 gusting 13 0.6
2015-Jan-28 16:22 182 6 gusting 13 0.6
2015-Jan-28 16:17 233 6 gusting 13 0.6
2015-Jan-28 16:12 173 6 gusting 13 0.6
2015-Jan-28 16:07 230 6 gusting 13 1.1
2015-Jan-28 16:02 184 6 gusting 18 1.1
2015-Jan-28 15:57 183 6 gusting 18 1.1
2015-Jan-28 15:52 215 6 gusting 18 1.1
2015-Jan-28 15:47 206 6 gusting 13 1.1
2015-Jan-28 15:42 209 6 gusting 13 1.1
2015-Jan-28 15:37 253 6 gusting 13 1.1
2015-Jan-28 15:32 217 6 gusting 15 1.1
2015-Jan-28 15:27 194 6 gusting 15 1.1
2015-Jan-28 15:22 205 6 gusting 15 1.1
2015-Jan-28 15:17 193 6 gusting 15 1.1
2015-Jan-28 15:12 232 6 gusting 16 1.1
2015-Jan-28 15:07 212 7 gusting 17 1.1
2015-Jan-28 15:02 221 7 gusting 17 1.1
2015-Jan-28 14:57 221 8 gusting 17 1.1
2015-Jan-28 14:52 224 7 gusting 15 1.1
2015-Jan-28 14:47 230 6 gusting 15 1.1
2015-Jan-28 14:42 207 6 gusting 15 1.1
2015-Jan-28 14:37 217 6 gusting 15 1.1
2015-Jan-28 14:32 213 6 gusting 16 1.1
2015-Jan-28 14:27 236 6 gusting 16 1.1
2015-Jan-28 14:22 199 6 gusting 16 1.1
2015-Jan-28 14:17 207 6 gusting 14 1.1
2015-Jan-28 14:12 224 6 gusting 14 0.6
2015-Jan-28 14:07 184 6 gusting 16 0.6
2015-Jan-28 14:02 209 6 gusting 16 0.6
2015-Jan-28 13:57 200 6 gusting 16 0.6
2015-Jan-28 13:52 206 5 gusting 13 0.6
2015-Jan-28 13:47 182 5 gusting 13 0.6
2015-Jan-28 13:42 198 6 gusting 13 0.6
2015-Jan-28 13:37 197 6 gusting 14 0.6
2015-Jan-28 13:32 217 6 gusting 14 0.6
2015-Jan-28 13:27 190 6 gusting 14 0.6
2015-Jan-28 13:22 205 6 gusting 13 0.6
2015-Jan-28 13:17 216 6 gusting 19 0.6
2015-Jan-28 13:12 165 6 gusting 19 0.6
2015-Jan-28 13:07 219 6 gusting 19 0.6
2015-Jan-28 13:02 209 6 gusting 19 0.6
2015-Jan-28 12:57 223 6 gusting 19 0.6
2015-Jan-28 12:52 216 6 gusting 13 1.1
2015-Jan-28 12:47 215 6 gusting 13 1.1
2015-Jan-28 12:42 159 6 gusting 14 1.1
2015-Jan-28 12:37 195 6 gusting 14 1.1
2015-Jan-28 12:32 199 6 gusting 17 1.1
2015-Jan-28 12:27 223 6 gusting 17 1.1
2015-Jan-28 12:22 199 6 gusting 17 1.1
2015-Jan-28 12:17 201 6 gusting 17 1.1
2015-Jan-28 12:12 213 6 gusting 15 1.1
2015-Jan-28 12:07 188 6 gusting 14 1.1
2015-Jan-28 12:02 209 5 gusting 15 1.1
2015-Jan-28 11:57 230 6 gusting 15 1.1
2015-Jan-28 11:52 248 6 gusting 15 1.1
2015-Jan-28 11:47 237 5 gusting 15 1.1
2015-Jan-28 11:42 207 5 gusting 12 1.1
2015-Jan-28 11:37 234 6 gusting 13 1.1
2015-Jan-28 11:32 191 6 gusting 15 1.1
2015-Jan-28 11:27 235 6 gusting 15 1.1
2015-Jan-28 11:22 252 5 gusting 15 1.1
2015-Jan-28 11:17 187 5 gusting 15 1.1
2015-Jan-28 11:12 194 6 gusting 15 0.6
2015-Jan-28 11:07 211 6 gusting 13 0.6
2015-Jan-28 11:02 239 5 gusting 14 0.6
2015-Jan-28 10:57 253 6 gusting 14 0.6
2015-Jan-28 10:52 257 6 gusting 14 0.6
2015-Jan-28 10:47 226 5 gusting 14 0.6
2015-Jan-28 10:42 188 5 gusting 15 0.6
2015-Jan-28 10:37 210 6 gusting 17 0.6
2015-Jan-28 10:32 200 6 gusting 14 0.6
2015-Jan-28 10:27 190 6 gusting 14 0.6
2015-Jan-28 10:22 188 6 gusting 14 0.6
2015-Jan-28 10:17 207 6 gusting 13 0.6
2015-Jan-28 10:12 213 5 gusting 13 0.6
2015-Jan-28 10:07 146 6 gusting 13 0.6
2015-Jan-28 10:02 177 6 gusting 13 0.6
2015-Jan-28 09:57 188 6 gusting 13 0.6
2015-Jan-28 09:52 161 6 gusting 13 0.6
2015-Jan-28 09:47 228 5 gusting 13 -0.0
2015-Jan-28 09:42 239 6 gusting 12 -0.0
2015-Jan-28 09:37 178 6 gusting 12 -0.0
2015-Jan-28 09:32 194 5 gusting 13 -0.0
2015-Jan-28 09:27 211 5 gusting 13 -0.0
2015-Jan-28 09:22 213 6 gusting 13 -0.0
2015-Jan-28 09:17 216 5 gusting 12 -0.6
2015-Jan-28 09:12 213 4 gusting 11 -0.6
2015-Jan-28 09:07 258 4 gusting 11 -0.6
2015-Jan-28 09:02 207 4 gusting 11 -0.6
2015-Jan-28 08:57 242 4 gusting 11 -0.6
2015-Jan-28 08:52 228 5 gusting 12 -0.6
2015-Jan-28 08:47 188 5 gusting 12 -0.6
2015-Jan-28 08:42 207 5 gusting 12 -1.1
2015-Jan-28 08:37 219 5 gusting 12 -1.1
2015-Jan-28 08:32 184 5 gusting 13 -1.1
2015-Jan-28 08:27 173 6 gusting 13 -1.1
2015-Jan-28 08:22 225 4 gusting 13 -1.1
2015-Jan-28 08:17 167 4 gusting 13 -1.1
2015-Jan-28 08:12 192 5 gusting 13 -1.1
2015-Jan-28 08:07 223 6 gusting 13 -1.1
2015-Jan-28 08:02 207 6 gusting 12 -1.1
2015-Jan-28 07:57 182 5 gusting 12 -1.7
2015-Jan-28 07:52 167 5 gusting 11 -1.7
2015-Jan-28 07:47 184 5 gusting 11 -1.7
2015-Jan-28 07:42 208 5 gusting 12 -1.7
2015-Jan-28 07:37 167 5 gusting 12 -1.7
2015-Jan-28 07:32 201 5 gusting 12 -1.7
2015-Jan-28 07:27 184 5 gusting 12 -1.7
2015-Jan-28 07:22 184 5 gusting 14 -1.7
2015-Jan-28 07:17 209 6 gusting 14 -1.7
2015-Jan-28 07:12 164 6 gusting 12 -1.7
2015-Jan-28 07:07 213 6 gusting 12 -1.7
2015-Jan-28 07:02 163 6 gusting 12 -1.7
2015-Jan-28 06:57 216 5 gusting 12 -1.7
2015-Jan-28 06:52 209 5 gusting 12 -1.7
2015-Jan-28 06:47 177 5 gusting 12 -1.7
2015-Jan-28 05:42 220 6 gusting 14 -1.7
2015-Jan-28 05:37 194 5 gusting 14 -1.7
2015-Jan-28 05:32 218 5 gusting 11 -1.7
2015-Jan-28 05:27 206 5 gusting 11 -1.7
2015-Jan-28 05:22 203 5 gusting 11 -1.7
2015-Jan-28 05:17 180 6 gusting 11 -1.7
2015-Jan-28 05:12 230 4 gusting 12 -1.7
2015-Jan-28 05:07 202 5 gusting 12 -1.7
2015-Jan-28 05:02 230 6 gusting 12 -1.7
2015-Jan-28 04:57 219 5 gusting 9 -1.7
2015-Jan-28 04:52 214 4 gusting 10 -1.7
2015-Jan-28 04:47 204 4 gusting 10 -1.7
2015-Jan-28 04:42 237 5 gusting 9 -1.7
2015-Jan-28 04:37 213 4 gusting 9 -1.7
2015-Jan-28 04:32 194 3 gusting 12 -1.7
2015-Jan-28 04:27 190 4 gusting 12 -1.7
2015-Jan-28 04:22 216 5 gusting 12 -1.7
2015-Jan-28 04:17 218 3 gusting 12 -1.7
2015-Jan-28 04:12 215 4 gusting 12 -1.7
2015-Jan-28 04:07 194 6 gusting 12 -1.7
2015-Jan-28 04:02 222 5 gusting 10 -1.7
2015-Jan-28 03:57 183 5 gusting 11 -1.7
2015-Jan-28 03:52 215 4 gusting 11 -1.7
2015-Jan-28 03:47 205 4 gusting 11 -1.7
2015-Jan-28 03:42 200 4 gusting 10 -1.7
2015-Jan-28 03:37 235 4 gusting 10 -1.7
2015-Jan-28 03:32 202 4 gusting 13 -1.7
2015-Jan-28 03:27 203 4 gusting 13 -1.7
2015-Jan-28 03:22 234 4 gusting 13 -1.7
2015-Jan-28 03:17 168 4 gusting 13 -1.7
2015-Jan-28 03:12 223 5 gusting 8 -1.7
2015-Jan-28 03:07 215 3 gusting 8 -1.7
2015-Jan-28 03:02 169 3 gusting 8 -1.7
2015-Jan-28 02:57 200 4 gusting 8 -1.7
2015-Jan-28 02:52 187 3 gusting 7 -1.7
2015-Jan-28 02:47 215 4 gusting 7 -1.1
2015-Jan-28 02:42 237 4 gusting 7 -1.1
2015-Jan-28 02:37 201 3 gusting 7 -1.1
2015-Jan-28 02:32 207 3 gusting 7 -1.1
2015-Jan-28 02:27 217 3 gusting 7 -1.1
2015-Jan-28 02:22 231 2 gusting 6 -1.1
2015-Jan-28 02:17 252 2 gusting 7 -1.1
2015-Jan-28 02:12 225 2 gusting 10 -1.1
2015-Jan-28 02:07 210 3 gusting 10 -1.1
2015-Jan-28 02:02 254 4 gusting 10 -1.1
2015-Jan-28 01:57 220 3 gusting 10 -1.1
2015-Jan-28 01:52 213 3 gusting 10 -1.1
2015-Jan-28 01:47 229 3 gusting 7 -1.1
2015-Jan-28 01:42 261 3 gusting 6 -1.1
2015-Jan-28 01:37 207 2 gusting 9 -1.1
2015-Jan-28 01:32 208 2 gusting 9 -1.1
2015-Jan-28 01:27 211 3 gusting 9 -1.1
2015-Jan-28 01:22 219 3 gusting 7 -1.1
2015-Jan-28 01:17 192 2 gusting 9 -1.1
2015-Jan-28 01:12 232 3 gusting 9 -1.1
2015-Jan-28 01:07 221 3 gusting 9 -1.1
2015-Jan-28 01:02 209 3 gusting 7 -1.1
2015-Jan-28 00:57 189 2 gusting 7 -1.1
2015-Jan-28 00:52 219 2 gusting 7 -1.1
2015-Jan-28 00:47 228 3 gusting 7 -1.1
2015-Jan-28 00:42 221 2 gusting 6 -1.1
2015-Jan-28 00:37 211 1 gusting 5 -1.1
2015-Jan-28 00:32 199 1 gusting 5 -1.1
2015-Jan-28 00:27 224 1 gusting 5 -1.1
2015-Jan-28 00:22 223 1 gusting 4 -1.1
2015-Jan-28 00:17 212 0 gusting 3 -1.1
2015-Jan-28 00:12 236 0 gusting 3 -1.1
2015-Jan-28 00:07 236 1 gusting 3 -1.1
2015-Jan-28 00:02 202 1 gusting 4 -0.6
2015-Jan-27 23:57 234 0 gusting 4 -0.6
2015-Jan-27 23:52 216 1 gusting 5 -0.6
2015-Jan-27 23:47 234 0 gusting 5 -0.6
2015-Jan-27 23:42 216 0 gusting 6 -0.6
2015-Jan-27 23:37 243 1 gusting 6 -0.6
2015-Jan-27 23:32 276 1 gusting 8 -0.6
2015-Jan-27 23:27 236 2 gusting 8 -0.6
2015-Jan-27 23:22 206 2 gusting 8 -0.6
2015-Jan-27 23:17 265 1 gusting 6 -0.6
2015-Jan-27 23:12 209 1 gusting 6 -0.6
2015-Jan-27 23:07 235 2 gusting 6 -0.6
2015-Jan-27 23:02 235 2 gusting 4 -0.6
2015-Jan-27 22:57 216 1 gusting 4 -0.6
2015-Jan-27 22:52 205 1 gusting 4 -0.6
2015-Jan-27 22:47 206 1 gusting 5 -0.6
2015-Jan-27 22:42 252 1 gusting 6 -0.6
2015-Jan-27 22:37 224 2 gusting 6 -0.6
2015-Jan-27 22:32 240 1 gusting 4 -0.6
2015-Jan-27 22:27 236 0 gusting 4 -0.6
2015-Jan-27 22:22 240 0 gusting 8 -0.6
2015-Jan-27 22:17 240 0 gusting 8 -0.6
2015-Jan-27 22:12 255 1 gusting 8 -0.6
2015-Jan-27 22:07 240 1 gusting 8 -0.6
2015-Jan-27 22:02 223 0 gusting 4 -0.6
2015-Jan-27 21:57 213 0 gusting 4 -0.6
2015-Jan-27 21:52 217 0 gusting 4 -0.6
2015-Jan-27 21:47 216 0 gusting 3 -0.6
2015-Jan-27 21:42 271 0 gusting 3 -0.6
2015-Jan-27 21:37 217 0 gusting 3 -0.6
2015-Jan-27 21:32 239 0 gusting 6 -0.6
2015-Jan-27 21:27 239 0 gusting 6 -0.6
2015-Jan-27 21:22 232 0 gusting 6 -0.6
2015-Jan-27 21:17 286 -0.6
2015-Jan-27 21:12 264 0 gusting 6 -0.6
2015-Jan-27 21:07 264 0 gusting 6 -0.6
2015-Jan-27 21:02 236 -0.6
2015-Jan-27 20:57 241 -0.6
2015-Jan-27 20:52 240 -0.6
2015-Jan-27 20:47 241 -0.6
2015-Jan-27 20:42 244 0 gusting 3 -0.6
2015-Jan-27 20:37 244 0 gusting 6 -0.6
2015-Jan-27 20:32 244 0 gusting 6 -0.6
2015-Jan-27 20:27 246 0 gusting 6 -0.6
2015-Jan-27 20:22 245 -0.6
2015-Jan-27 20:17 246 -0.6
2015-Jan-27 20:12 245 0 gusting 3 -0.6
2015-Jan-27 20:07 245 0 gusting 5 -0.6
2015-Jan-27 20:02 257 0 gusting 5 -0.6